Smith Mountain Lake Weather Center

Moon Phase Calendar



Smith Mountain Lake Water Level
Online Cameras

 


      

Current Conditions in North Shore
3/5/2024 6:07:45 AM

50°F
Feels Like 49
Clouds
Humidity
91%
Pressure
30.12"
Wind
1 mph (S)
Dew Point
48°F
UV Index
0/10 (Low)
Visibility
6 mi

Hourly Forecast

Date & Time Tue, Mar 5
6:00 AM
Tue, Mar 5
7:00 AM
Tue, Mar 5
8:00 AM
Tue, Mar 5
9:00 AM
Tue, Mar 5
10:00 AM
Tue, Mar 5
11:00 AM
Tue, Mar 5
12:00 PM
Tue, Mar 5
1:00 PM
Tue, Mar 5
2:00 PM
Tue, Mar 5
3:00 PM
Tue, Mar 5
4:00 PM
Tue, Mar 5
5:00 PM
Tue, Mar 5
6:00 PM
Tue, Mar 5
7:00 PM
Tue, Mar 5
8:00 PM
Tue, Mar 5
9:00 PM
Tue, Mar 5
10:00 PM
Tue, Mar 5
11:00 PM
Wed, Mar 6
12:00 AM
Wed, Mar 6
1:00 AM
Wed, Mar 6
2:00 AM
Wed, Mar 6
3:00 AM
Wed, Mar 6
4:00 AM
Wed, Mar 6
5:00 AM
Wed, Mar 6
6:00 AM
Wed, Mar 6
7:00 AM
Wed, Mar 6
8:00 AM
Wed, Mar 6
9:00 AM
Wed, Mar 6
10:00 AM
Wed, Mar 6
11:00 AM
Wed, Mar 6
12:00 PM
Wed, Mar 6
1:00 PM
Wed, Mar 6
2:00 PM
Wed, Mar 6
3:00 PM
Wed, Mar 6
4:00 PM
Wed, Mar 6
5:00 PM
Wed, Mar 6
6:00 PM
Wed, Mar 6
7:00 PM
Wed, Mar 6
8:00 PM
Wed, Mar 6
9:00 PM
Wed, Mar 6
10:00 PM
Wed, Mar 6
11:00 PM
Thu, Mar 7
12:00 AM
Thu, Mar 7
1:00 AM
Thu, Mar 7
2:00 AM
Thu, Mar 7
3:00 AM
Thu, Mar 7
4:00 AM
Thu, Mar 7
5:00 AM
Condition
Clouds

Clouds

Clouds

Clouds

Clouds

Clouds

Clouds

Clouds

Clouds

Clouds

Clouds

Clouds

Clouds

Clouds

Clouds

Clouds

Clouds

Clouds

Clouds

Clouds

Clouds

Clouds

Clouds

Clouds

Rain

Rain

Rain

Rain

Rain

Rain

Rain

Rain

Rain

Rain

Rain

Rain

Rain

Rain

Rain

Rain

Clouds

Clouds

Clouds

Clouds

Clouds

Clouds

Clouds

Clouds
Temperature 50°F50°F50°F54°F58°F63°F66°F68°F69°F69°F68°F66°F61°F58°F57°F56°F56°F56°F56°F55°F55°F55°F55°F54°F54°F53°F53°F53°F52°F52°F52°F51°F51°F51°F51°F51°F51°F51°F51°F51°F51°F51°F51°F51°F51°F52°F52°F50°F
Feels Like 49°F49°F49°F53°F57°F62°F65°F67°F68°F68°F67°F65°F60°F58°F56°F56°F55°F55°F55°F55°F54°F54°F54°F54°F53°F53°F53°F52°F52°F51°F51°F51°F51°F51°F51°F51°F50°F50°F50°F50°F50°F50°F50°F51°F51°F51°F51°F50°F
Cloudiness 47%46%31%37%27%18%31%37%65%80%87%90%92%93%100%100%100%100%100%100%100%100%100%100%100%100%100%100%100%100%100%100%100%100%100%100%100%100%100%100%100%100%100%100%100%100%100%91%
Visibility 6 mi6 mi6 mi6 mi6 mi6 mi6 mi6 mi6 mi6 mi6 mi6 mi6 mi6 mi6 mi6 mi6 mi6 mi6 mi6 mi6 mi6 mi6 mi6 mi6 mi6 mi6 mi3 mi6 mi6 mi6 mi6 mi6 mi6 mi6 mi6 mi6 mi6 mi6 mi6 mi6 mi6 mi6 mi6 mi6 mi6 mi6 mi6 mi
Precipitation 0%0%0%0%0%0%0%0%0%0%0%0%0%0%0%0%0%0%0%1%19%26%35%38%47%92%100%100%100%100%100%100%99%99%99%99%99%99%93%92%71%71%81%63%0%0%0%0%
Humidity 91%92%90%82%72%62%58%56%54%54%58%66%77%82%86%87%88%89%89%89%89%89%89%89%91%94%95%95%96%95%96%95%95%96%97%96%97%97%97%96%96%95%94%94%93%92%92%93%
Dew Point 48°F47°F48°F48°F49°F50°F51°F51°F52°F52°F53°F54°F54°F53°F53°F52°F52°F52°F52°F52°F52°F52°F51°F51°F51°F52°F52°F51°F51°F51°F50°F50°F50°F50°F50°F50°F50°F50°F50°F50°F50°F50°F50°F50°F49°F49°F49°F48°F
Pressure 30.12"30.12"30.12"30.09"30.09"30.06"30.03"30"29.97"29.97"29.97"29.97"29.97"30"30"30"30"29.97"29.97"29.97"29.94"29.91"29.88"29.88"29.88"29.85"29.85"29.85"29.85"29.85"29.85"29.83"29.83"29.83"29.8"29.83"29.83"29.85"29.85"29.85"29.88"29.88"29.88"29.88"29.88"29.88"29.88"29.91"
Wind Speed 2.6 mph3.6 mph4 mph3.5 mph4.5 mph5 mph6.1 mph6.2 mph7.3 mph7.7 mph7.5 mph6.2 mph4.2 mph3.4 mph2.8 mph2.8 mph2 mph2 mph0.7 mph0.5 mph2.1 mph2.6 mph2.6 mph3.4 mph3 mph3.8 mph4.8 mph4.2 mph5.1 mph4.2 mph4.9 mph5.7 mph5.1 mph4.4 mph4.2 mph3.3 mph3.1 mph3.3 mph2.9 mph2.5 mph2.7 mph2.6 mph2.4 mph2.6 mph3.2 mph3.6 mph3.7 mph3.6 mph
Wind
Direction
302°
WNW
269°
W
254°
WSW
235°
SW
220°
SW
200°
SSW
196°
SSW
194°
SSW
192°
SSW
192°
SSW
189°
S
187°
S
174°
S
171°
S
174°
S
177°
S
160°
SSE
160°
SSE
157°
SSE
70°
ENE
47°
NE
47°
NE
69°
ENE
45°
NE
49°
NE
50°
NE
34°
NE
14°
NNE
28°
NNE

N

N
359°
N
355°
N
345°
NNW
350°
N
337°
NNW
320°
NW
315°
NW
316°
NW
320°
NW
310°
NW
317°
NW
322°
NW
311°
NW
308°
NW
305°
NW
314°
NW
330°
NNW

Daily Forecast

Date High Low Precip. Humidity
Today
Mar 5

Clouds
69 °F
49 °F
0%
58%
Wednesday
Mar 6

Rain
56 °F
51 °F
100%
96%
Thursday
Mar 7

Rain
64 °F
48 °F
81%
66%
Friday
Mar 8

Rain
54 °F
50 °F
36%
81%
Saturday
Mar 9

Rain
50 °F
46 °F
100%
97%
Sunday
Mar 10

Clouds
47 °F
41 °F
79%
44%
Monday
Mar 11

Clouds
59 °F
41 °F
0%
38%
Tuesday
Mar 12

Clouds
66 °F
41 °F
0%
40%
Wednesday
Mar 13

Clear
65 °F
46 °F
0%
47%
Thursday
Mar 14

Clouds
60 °F
46 °F
0%
56%
Friday
Mar 15

Rain
58 °F
44 °F
32%
68%
Saturday
Mar 16

Rain
59 °F
49 °F
100%
79%
Sunday
Mar 17

Rain
54 °F
43 °F
100%
82%
Monday
Mar 18

Clouds
48 °F
35 °F
25%
37%
Tuesday
Mar 19

Clouds
62 °F
34 °F
0%
38%
Wednesday
Mar 20

Clouds
66 °F
49 °F
0%
54%

Temperature 8-14 Day Outlook



Precipitation 8-14 Day Outlook




Quick Links
Smith Mountain Lake News
Smith Mountain Lake Photos
Smith Mountain Lake Videos




About Us
Contact Us
Site Map
Search Site
Advertise With Us
   
SmithMountain.USLakes.info
THE SMITH MOUNTAIN LAKE WEBSITE

Copyright 2024, Lakes Online
Privacy    |    Legal